Weather History for PHHI - August, 2013

Change the Weather History Date:

Saturday, August 3, 2013

  Actual Average Record
Temperature  
Mean Temperature 74 °F -  
Max Temperature 81 °F 81 °F 102 °F (1999)
Min Temperature 66 °F 67 °F 64 °F (2008)
Cooling Degree Days 8    
Growing Degree Days 24 (Base 50)    
Moisture  
Dew Point 66 °F    
Average Humidity 77    
Maximum Humidity 92    
Minimum Humidity 53    
Precipitation  
Precipitation 0.00 in - - ()
Sea Level Pressure  
Sea Level Pressure 30.01 in    
Wind  
Wind Speed 5 mph (ENE)    
Max Wind Speed 14 mph    
Max Gust Speed 22 mph    
Visibility 10 miles    
Events Rain    
Averages and records for this station are not official NWS values.
T = Trace of Precipitation, MM = Missing Value Source: NWS Daily Summary

Daily Weather History Graph

Daily Weather History Graph

Search for Another Location

Airport or City:

Trip Planner

Search our weather history database for the weather conditions in past years. The results will help you decide how hot, cold, wet, or windy it might be!

Date:

Astronomy

Aug. 03, 2013 Rise Set
Actual Time 6:06 AM HST 7:10 PM HST
Civil Twilight 5:42 AM HST 7:33 PM HST
Nautical Twilight 5:14 AM HST 8:01 PM HST
Astronomical Twilight 4:45 AM HST 8:30 PM HST
Moon 3:29 AM HST 4:57 PM HST
Length of Visible Light 13h 50m
Length of Day
13h 03m
Waning Crescent, 8% of the Moon is Illuminated
Aug 3
Waning Crescent
Aug 6
New
Aug 14
First Quarter
Aug 20
Full
Aug 27
Last Quarter

Hourly Weather History & Observations

Time (HST) Temp. Heat Index Dew Point Humidity Pressure Visibility Wind Dir Wind Speed Gust Speed Precip Events Conditions
12:55 AM 71.1 °F - 66.4 °F 85% 30.01 in 10.0 mi Calm Calm - N/A   Partly Cloudy
1:55 AM 67.6 °F - 64.0 °F 88% 30.00 in 10.0 mi West 3.5 mph - N/A   Partly Cloudy
2:55 AM 66.9 °F - 64.4 °F 92% 29.99 in 10.0 mi WNW 5.8 mph - N/A   Partly Cloudy
3:55 AM 68.7 °F - 65.8 °F 90% 29.99 in 10.0 mi Calm Calm - N/A   Mostly Cloudy
4:09 AM 69.8 °F - 66.2 °F 88% 29.99 in 10.0 mi Calm Calm - N/A   Drizzle
4:18 AM 69.8 °F - 66.2 °F 88% 29.99 in 10.0 mi Calm Calm - N/A   Mostly Cloudy
4:55 AM 67.1 °F - 64.2 °F 90% 29.99 in 10.0 mi Calm Calm - 0.00 in   Partly Cloudy
5:55 AM 70.3 °F - 65.7 °F 85% 30.00 in 10.0 mi NE 4.6 mph - N/A   Clear
6:55 AM 68.2 °F - 64.8 °F 89% 30.02 in 10.0 mi WNW 5.8 mph - N/A   Scattered Clouds
7:18 AM 69.8 °F - 66.2 °F 88% 30.03 in 9.0 mi Calm Calm - N/A Rain Light Rain
7:33 AM 71.6 °F - 66.2 °F 83% 30.04 in 10.0 mi ENE 6.9 mph - N/A   Overcast
7:55 AM 72.3 °F - 66.6 °F 82% 30.04 in 10.0 mi ENE 3.5 mph - 0.00 in   Overcast
8:55 AM 75.2 °F - 67.5 °F 77% 30.04 in 10.0 mi NE 6.9 mph - N/A   Scattered Clouds
9:18 AM 75.2 °F - 66.2 °F 73% 30.04 in 10.0 mi ENE 10.4 mph - N/A   Light Drizzle
9:22 AM 75.2 °F - 66.2 °F 73% 30.04 in 9.0 mi ENE 10.4 mph - N/A   Light Drizzle
9:23 AM 75.2 °F - 66.2 °F 73% 30.04 in 9.0 mi NE 11.5 mph - N/A   Light Drizzle
9:31 AM 73.4 °F - 68.0 °F 83% 30.05 in 7.0 mi ENE 8.1 mph - N/A   Overcast
9:55 AM 75.0 °F - 67.5 °F 77% 30.04 in 10.0 mi East 10.4 mph - 0.00 in   Mostly Cloudy
10:55 AM 78.4 °F - 66.0 °F 66% 30.03 in 10.0 mi ENE 9.2 mph - N/A   Partly Cloudy
11:55 AM 79.9 °F - 65.5 °F 61% 30.01 in 10.0 mi ENE 9.2 mph - N/A   Partly Cloudy
12:55 PM 81.5 °F 83.3 °F 64.9 °F 57% 30.00 in 10.0 mi East 12.7 mph 17.3 mph N/A   Overcast
1:55 PM 81.7 °F 83.2 °F 64.0 °F 55% 29.99 in 10.0 mi ENE 11.5 mph 19.6 mph N/A   Partly Cloudy
2:55 PM 81.7 °F 83.3 °F 64.6 °F 56% 29.97 in 10.0 mi East 10.4 mph 21.9 mph N/A   Partly Cloudy
3:55 PM 81.1 °F 82.3 °F 62.8 °F 53% 29.97 in 10.0 mi ENE 13.8 mph - N/A   Partly Cloudy
4:55 PM 79.9 °F - 64.4 °F 59% 29.97 in 10.0 mi East 10.4 mph - N/A   Mostly Cloudy
5:55 PM 77.0 °F - 65.1 °F 67% 29.97 in 10.0 mi Variable 4.6 mph - N/A   Mostly Cloudy
6:55 PM 75.7 °F - 65.3 °F 70% 29.99 in 10.0 mi East 5.8 mph - N/A   Mostly Cloudy
7:55 PM 74.5 °F - 64.8 °F 72% 30.01 in 10.0 mi Calm Calm - N/A   Overcast
8:55 PM 74.3 °F - 65.3 °F 73% 30.01 in 10.0 mi East 3.5 mph - N/A   Overcast
9:03 PM 73.4 °F - 64.4 °F 73% 30.02 in 10.0 mi ENE 4.6 mph - N/A Rain Light Rain
9:21 PM 73.4 °F - 66.2 °F 78% 30.02 in 10.0 mi ENE 6.9 mph - N/A   Scattered Clouds
9:23 PM 73.4 °F - 66.2 °F 78% 30.02 in 10.0 mi ENE 5.8 mph - N/A   Light Drizzle
9:33 PM 71.6 °F - 66.2 °F 83% 30.03 in 10.0 mi ENE 4.6 mph - N/A   Partly Cloudy
9:46 PM 71.6 °F - 68.0 °F 88% 30.03 in 10.0 mi NE 9.2 mph - N/A   Light Drizzle
9:55 PM 72.3 °F - 67.1 °F 84% 30.03 in 10.0 mi NE 9.2 mph - 0.00 in   Scattered Clouds
10:55 PM 73.4 °F - 65.5 °F 76% 30.04 in 10.0 mi NNE 3.5 mph - N/A   Overcast
11:06 PM 73.4 °F - 66.2 °F 78% 30.04 in 10.0 mi NE 4.6 mph - N/A   Light Drizzle
11:16 PM 73.4 °F - 66.2 °F 78% 30.04 in 10.0 mi NE 3.5 mph - N/A   Mostly Cloudy
11:42 PM 73.4 °F - 66.2 °F 78% 30.03 in 10.0 mi Calm Calm - N/A Rain Light Rain
11:55 PM 72.5 °F - 66.0 °F 80% 30.02 in 9.0 mi North 3.5 mph - 0.00 in Rain Light Rain